Location: Ago
(8.4667°N, 4.4833°E)
Time: 23:26:33
(UTC+00:00)

ARIANE 5 R/B - Pass Details

Date: 18 September 2020
Orbit: 449 x 35399 km, 6.8° (Epoch: 20 October)

Event Time Altitude Azimuth Distance (km) Brightness Sun altitude
Rises 19:00:46 0° 266° (W) 21,645 10.9 -20.7°
Reaches altitude 10° 19:43:01 10° 266° (W) 10,670 8.7 -31.1°
Enters shadow 20:06:42 73° 234° (SW) 1,430 3.2 -36.9°
